Voltar ao catálogo

DELTA 1 DEB

AtivoSSO
NORAD 12211·DEBRIS·🇺🇸 United States

Lançado Mar 5, 1978 de Vandenberg Space Force Base

Loading…

Próximas Passagens (próximas 24 horas)

TLE

AtualizadoSource: Space-Track

Época: Sep 14, 2026, 05:09 UTC

1 12211U 78026BC  26257.21511655  .00000224  00000-0  14613-3 0  9994
2 12211  99.1615 171.1297 0115821 190.5903 169.2825 14.09167533332171

Acompanhe DELTA 1 DEB em tempo real com AllMySat

Download on the App Store